Time,TemperatureF,DewpointF,PressureIn,WindDirection,WindDirectionDegrees,WindSpeedMPH,WindSpeedGustMPH,Humidity,HourlyPrecipIn,Conditions,Clouds,dailyrainin,SoftwareType,DateUTC
2013-02-25 00:01:00,39.0,17.0,29.93,SSE,167,4.0,11.0,40,0.00,,,0.00,,2013-02-25 05:01:00,
2013-02-25 00:11:00,39.0,17.0,29.93,SSE,167,4.0,11.0,40,0.00,,,0.00,,2013-02-25 05:11:00,
2013-02-25 00:22:00,38.0,18.0,29.93,SSE,168,5.0,13.0,43,0.00,,,0.00,,2013-02-25 05:22:00,
2013-02-25 00:32:00,38.0,18.0,29.93,South,169,3.0,12.0,44,0.00,,,0.00,,2013-02-25 05:32:00,
2013-02-25 00:42:00,38.0,18.0,29.93,South,169,3.0,12.0,44,0.00,,,0.00,,2013-02-25 05:42:00,
2013-02-25 00:52:00,38.0,18.0,29.93,South,169,3.0,12.0,44,0.00,,,0.00,,2013-02-25 05:52:00,
2013-02-25 01:02:00,38.0,16.0,29.93,South,169,2.0,9.0,40,0.00,,,0.00,,2013-02-25 06:02:00,
2013-02-25 01:12:00,38.0,16.0,29.93,South,169,2.0,9.0,40,0.00,,,0.00,,2013-02-25 06:12:00,
2013-02-25 01:21:00,38.0,16.0,29.93,South,171,2.0,8.0,40,0.00,,,0.00,,2013-02-25 06:21:00,
2013-02-25 01:32:00,38.0,16.0,29.93,South,170,1.0,6.0,41,0.00,,,0.00,,2013-02-25 06:32:00,
2013-02-25 01:42:00,38.0,16.0,29.93,South,170,1.0,6.0,41,0.00,,,0.00,,2013-02-25 06:42:00,
2013-02-25 01:51:00,38.0,16.0,29.94,South,172,3.0,7.0,41,0.00,,,0.00,,2013-02-25 06:51:00,
2013-02-25 02:01:00,40.0,16.0,29.94,South,172,1.0,5.0,37,0.00,,,0.00,,2013-02-25 07:01:00,
2013-02-25 02:11:00,39.0,17.0,29.93,South,173,1.0,6.0,40,0.00,,,0.00,,2013-02-25 07:11:00,
2013-02-25 02:21:00,39.0,17.0,29.93,South,173,1.0,6.0,40,0.00,,,0.00,,2013-02-25 07:21:00,
2013-02-25 02:32:00,41.0,17.0,29.93,South,173,0.0,4.0,37,0.00,,,0.00,,2013-02-25 07:32:00,
2013-02-25 02:51:00,41.0,17.0,29.94,South,173,0.0,2.0,37,0.00,,,0.00,,2013-02-25 07:51:00,
2013-02-25 03:01:00,40.0,16.0,29.93,South,173,0.0,0.0,37,0.00,,,0.00,,2013-02-25 08:01:00,
2013-02-25 03:21:00,40.0,16.0,29.94,South,173,0.0,1.0,37,0.00,,,0.00,,2013-02-25 08:21:00,
2013-02-25 03:32:00,40.0,15.0,29.95,South,173,0.0,1.0,35,0.00,,,0.00,,2013-02-25 08:32:00,
2013-02-25 03:52:00,40.0,16.0,29.94,South,173,0.0,0.0,37,0.00,,,0.00,,2013-02-25 08:52:00,
2013-02-25 04:02:00,38.0,17.0,29.93,South,173,1.0,2.0,42,0.00,,,0.00,,2013-02-25 09:02:00,
2013-02-25 04:21:00,36.0,18.0,29.93,South,173,1.0,2.0,48,0.00,,,0.00,,2013-02-25 09:21:00,
2013-02-25 04:32:00,34.0,19.0,29.94,South,173,2.0,4.0,54,0.00,,,0.00,,2013-02-25 09:32:00,
2013-02-25 04:42:00,34.0,19.0,29.94,South,173,2.0,4.0,54,0.00,,,0.00,,2013-02-25 09:42:00,
2013-02-25 04:52:00,34.0,20.0,29.94,South,173,2.0,4.0,55,0.00,,,0.00,,2013-02-25 09:52:00,
2013-02-25 05:01:00,33.0,20.0,29.95,South,173,2.0,4.0,59,0.00,,,0.00,,2013-02-25 10:01:00,
2013-02-25 05:11:00,33.0,20.0,29.95,South,173,2.0,4.0,59,0.00,,,0.00,,2013-02-25 10:11:00,
2013-02-25 05:21:00,33.0,21.0,29.95,South,173,2.0,4.0,60,0.00,,,0.00,,2013-02-25 10:21:00,
2013-02-25 05:32:00,33.0,21.0,29.95,South,173,2.0,4.0,60,0.00,,,0.00,,2013-02-25 10:32:00,
2013-02-25 05:42:00,33.0,21.0,29.95,South,173,2.0,4.0,60,0.00,,,0.00,,2013-02-25 10:42:00,
2013-02-25 05:52:00,33.0,21.0,29.96,South,173,2.0,4.0,60,0.00,,,0.00,,2013-02-25 10:52:00,
2013-02-25 06:01:00,33.0,21.0,29.96,South,173,2.0,5.0,60,0.00,,,0.00,,2013-02-25 11:01:00,
2013-02-25 06:11:00,33.0,21.0,29.96,South,173,2.0,5.0,60,0.00,,,0.00,,2013-02-25 11:11:00,
2013-02-25 06:22:00,33.0,21.0,29.96,South,178,2.0,5.0,60,0.00,,,0.00,,2013-02-25 11:22:00,
2013-02-25 06:32:00,33.0,21.0,29.97,South,178,2.0,6.0,61,0.00,,,0.00,,2013-02-25 11:32:00,
2013-02-25 06:42:00,33.0,21.0,29.97,South,178,2.0,6.0,61,0.00,,,0.00,,2013-02-25 11:42:00,
2013-02-25 06:52:00,32.0,20.0,29.98,South,179,3.0,5.0,62,0.00,,,0.00,,2013-02-25 11:52:00,
2013-02-25 07:02:00,32.0,21.0,29.97,South,181,3.0,8.0,63,0.00,,,0.00,,2013-02-25 12:02:00,
2013-02-25 07:11:00,32.0,21.0,29.97,South,181,3.0,8.0,63,0.00,,,0.00,,2013-02-25 12:11:00,
2013-02-25 07:22:00,31.0,20.0,29.98,South,181,3.0,5.0,64,0.00,,,0.00,,2013-02-25 12:22:00,
2013-02-25 07:32:00,31.0,21.0,29.99,South,184,3.0,8.0,66,0.00,,,0.00,,2013-02-25 12:32:00,
2013-02-25 07:42:00,31.0,21.0,29.99,South,184,3.0,8.0,66,0.00,,,0.00,,2013-02-25 12:42:00,
2013-02-25 07:54:00,31.0,21.0,29.99,South,184,3.0,7.0,67,0.00,,,0.00,,2013-02-25 12:54:00,
2013-02-25 08:02:00,30.0,21.0,29.99,South,183,3.0,5.0,68,0.00,,,0.00,,2013-02-25 13:02:00,
2013-02-25 08:12:00,30.0,21.0,29.99,South,183,3.0,5.0,68,0.00,,,0.00,,2013-02-25 13:12:00,
2013-02-25 08:23:00,30.0,21.0,30.00,South,183,3.0,7.0,68,0.00,,,0.00,,2013-02-25 13:23:00,
2013-02-25 08:32:00,31.0,21.0,30.01,South,179,3.0,5.0,67,0.00,,,0.00,,2013-02-25 13:32:00,
2013-02-25 08:42:00,31.0,21.0,30.01,South,179,3.0,5.0,67,0.00,,,0.00,,2013-02-25 13:42:00,
2013-02-25 08:52:00,31.0,21.0,30.02,South,180,4.0,7.0,66,0.00,,,0.00,,2013-02-25 13:52:00,
2013-02-25 09:03:00,31.0,21.0,30.02,South,179,4.0,10.0,65,0.00,,,0.00,,2013-02-25 14:03:00,
2013-02-25 09:18:00,31.0,21.0,30.02,South,179,4.0,10.0,65,0.00,,,0.00,,2013-02-25 14:18:00,
2013-02-25 09:32:00,32.0,22.0,30.03,South,184,3.0,7.0,66,0.00,,,0.00,,2013-02-25 14:32:00,
2013-02-25 09:42:00,32.0,22.0,30.03,South,184,3.0,7.0,66,0.00,,,0.00,,2013-02-25 14:42:00,
2013-02-25 09:52:00,32.0,22.0,30.04,South,184,3.0,7.0,67,0.00,,,0.00,,2013-02-25 14:52:00,
2013-02-25 10:03:00,32.0,22.0,30.04,South,184,4.0,6.0,67,0.00,,,0.00,,2013-02-25 15:03:00,
2013-02-25 10:11:00,32.0,22.0,30.04,South,184,4.0,6.0,67,0.00,,,0.00,,2013-02-25 15:11:00,
2013-02-25 10:22:00,32.0,22.0,30.04,South,184,4.0,6.0,67,0.00,,,0.00,,2013-02-25 15:22:00,
2013-02-25 10:32:00,32.0,23.0,30.04,South,183,3.0,6.0,70,0.00,,,0.00,,2013-02-25 15:32:00,
2013-02-25 10:42:00,32.0,23.0,30.04,South,183,3.0,6.0,70,0.00,,,0.00,,2013-02-25 15:42:00,
2013-02-25 10:52:00,31.0,22.0,30.04,South,184,3.0,6.0,68,0.00,,,0.00,,2013-02-25 15:52:00,
2013-02-25 11:02:00,32.0,24.0,30.04,South,184,2.0,5.0,71,0.00,,,0.00,,2013-02-25 16:02:00,
2013-02-25 11:12:00,32.0,24.0,30.04,South,184,2.0,5.0,71,0.00,,,0.00,,2013-02-25 16:12:00,
2013-02-25 11:22:00,32.0,23.0,30.03,South,184,2.0,5.0,70,0.00,,,0.00,,2013-02-25 16:22:00,
2013-02-25 11:32:00,32.0,23.0,30.03,South,184,2.0,6.0,70,0.00,,,0.00,,2013-02-25 16:32:00,
2013-02-25 11:42:00,32.0,23.0,30.03,South,184,2.0,6.0,70,0.00,,,0.00,,2013-02-25 16:42:00,
2013-02-25 11:51:00,33.0,23.0,30.02,South,184,3.0,5.0,67,0.00,,,0.00,,2013-02-25 16:51:00,
2013-02-25 12:02:00,33.0,24.0,30.02,South,184,3.0,5.0,68,0.00,,,0.00,,2013-02-25 17:02:00,
2013-02-25 12:11:00,33.0,24.0,30.02,South,184,3.0,5.0,68,0.00,,,0.00,,2013-02-25 17:11:00,
2013-02-25 12:21:00,33.0,22.0,30.01,South,183,3.0,6.0,64,0.00,,,0.00,,2013-02-25 17:21:00,
2013-02-25 12:32:00,33.0,23.0,30.01,South,184,2.0,6.0,65,0.00,,,0.00,,2013-02-25 17:32:00,
2013-02-25 12:42:00,33.0,23.0,30.01,South,184,2.0,6.0,65,0.00,,,0.00,,2013-02-25 17:42:00,
2013-02-25 12:52:00,33.0,24.0,30.01,South,183,1.0,5.0,68,0.00,,,0.00,,2013-02-25 17:52:00,
2013-02-25 13:02:00,33.0,23.0,30.01,South,183,2.0,4.0,67,0.00,,,0.00,,2013-02-25 18:02:00,
2013-02-25 13:12:00,33.0,23.0,30.01,South,183,2.0,4.0,67,0.00,,,0.00,,2013-02-25 18:12:00,
2013-02-25 13:21:00,34.0,24.0,30.00,South,184,1.0,4.0,66,0.00,,,0.00,,2013-02-25 18:21:00,
2013-02-25 13:33:00,35.0,24.0,30.00,South,183,2.0,5.0,65,0.00,,,0.00,,2013-02-25 18:33:00,
2013-02-25 13:42:00,35.0,24.0,30.00,South,183,2.0,5.0,65,0.00,,,0.00,,2013-02-25 18:42:00,
2013-02-25 13:51:00,35.0,24.0,30.00,South,183,2.0,4.0,65,0.00,,,0.00,,2013-02-25 18:51:00,
2013-02-25 14:01:00,35.0,24.0,29.98,South,184,3.0,5.0,64,0.00,,,0.00,,2013-02-25 19:01:00,
2013-02-25 14:11:00,35.0,24.0,29.98,South,184,3.0,5.0,64,0.00,,,0.00,,2013-02-25 19:11:00,
2013-02-25 14:22:00,35.0,25.0,29.98,South,183,1.0,6.0,66,0.00,,,0.00,,2013-02-25 19:22:00,
2013-02-25 14:32:00,35.0,24.0,29.98,South,183,2.0,5.0,64,0.00,,,0.00,,2013-02-25 19:32:00,
2013-02-25 14:42:00,35.0,24.0,29.98,South,183,2.0,5.0,64,0.00,,,0.00,,2013-02-25 19:42:00,
2013-02-25 14:52:00,35.0,24.0,29.98,South,183,1.0,4.0,63,0.00,,,0.00,,2013-02-25 19:52:00,
2013-02-25 15:01:00,36.0,25.0,29.99,South,184,0.0,3.0,65,0.00,,,0.00,,2013-02-25 20:01:00,
2013-02-25 15:11:00,36.0,25.0,29.99,South,184,0.0,3.0,65,0.00,,,0.00,,2013-02-25 20:11:00,
2013-02-25 15:21:00,36.0,25.0,29.98,South,184,1.0,4.0,63,0.00,,,0.00,,2013-02-25 20:21:00,
2013-02-25 15:32:00,37.0,24.0,29.97,South,183,0.0,4.0,60,0.00,,,0.00,,2013-02-25 20:32:00,
2013-02-25 15:42:00,37.0,24.0,29.97,South,183,0.0,4.0,60,0.00,,,0.00,,2013-02-25 20:42:00,
2013-02-25 15:52:00,37.0,24.0,29.96,South,183,1.0,5.0,60,0.00,,,0.00,,2013-02-25 20:52:00,
2013-02-25 16:02:00,37.0,24.0,29.96,South,183,1.0,5.0,60,0.00,,,0.00,,2013-02-25 21:02:00,
2013-02-25 16:11:00,37.0,24.0,29.96,South,183,1.0,5.0,60,0.00,,,0.00,,2013-02-25 21:11:00,
2013-02-25 16:21:00,38.0,25.0,29.96,South,184,2.0,4.0,58,0.00,,,0.00,,2013-02-25 21:21:00,
2013-02-25 16:32:00,38.0,25.0,29.96,South,183,1.0,5.0,59,0.00,,,0.00,,2013-02-25 21:32:00,
2013-02-25 16:42:00,38.0,25.0,29.96,South,183,1.0,5.0,59,0.00,,,0.00,,2013-02-25 21:42:00,
2013-02-25 16:51:00,38.0,25.0,29.96,South,183,1.0,3.0,59,0.00,,,0.00,,2013-02-25 21:51:00,
2013-02-25 17:02:00,38.0,25.0,29.96,South,184,1.0,4.0,60,0.00,,,0.00,,2013-02-25 22:02:00,
2013-02-25 17:11:00,38.0,25.0,29.96,South,184,1.0,4.0,60,0.00,,,0.00,,2013-02-25 22:11:00,
2013-02-25 17:21:00,38.0,26.0,29.96,South,183,2.0,3.0,61,0.00,,,0.00,,2013-02-25 22:21:00,
2013-02-25 17:32:00,38.0,26.0,29.96,South,184,1.0,3.0,61,0.00,,,0.00,,2013-02-25 22:32:00,
2013-02-25 17:42:00,38.0,26.0,29.96,South,184,1.0,3.0,61,0.00,,,0.00,,2013-02-25 22:42:00,
2013-02-25 17:52:00,37.0,25.0,29.96,South,183,1.0,3.0,62,0.00,,,0.00,,2013-02-25 22:52:00,
2013-02-25 18:01:00,36.0,26.0,29.95,South,183,2.0,4.0,66,0.00,,,0.00,,2013-02-25 23:01:00,
2013-02-25 18:11:00,36.0,26.0,29.95,South,183,2.0,4.0,66,0.00,,,0.00,,2013-02-25 23:11:00,
2013-02-25 18:22:00,35.0,26.0,29.95,South,184,2.0,4.0,68,0.00,,,0.00,,2013-02-25 23:22:00,
2013-02-25 18:32:00,34.0,25.0,29.95,South,183,4.0,8.0,69,0.00,,,0.00,,2013-02-25 23:32:00,
2013-02-25 18:42:00,34.0,25.0,29.95,South,183,4.0,8.0,69,0.00,,,0.00,,2013-02-25 23:42:00,
2013-02-25 18:52:00,33.0,25.0,29.95,South,181,3.0,7.0,71,0.00,,,0.00,,2013-02-25 23:52:00,
2013-02-25 19:02:00,33.0,25.0,29.96,South,184,4.0,8.0,71,0.00,,,0.00,,2013-02-26 00:02:00,
2013-02-25 19:12:00,33.0,25.0,29.96,South,184,4.0,8.0,71,0.00,,,0.00,,2013-02-26 00:12:00,
2013-02-25 19:22:00,32.0,24.0,29.96,South,184,4.0,8.0,73,0.00,,,0.00,,2013-02-26 00:22:00,
2013-02-25 19:32:00,32.0,25.0,29.96,South,184,4.0,7.0,74,0.00,,,0.00,,2013-02-26 00:32:00,
2013-02-25 19:42:00,32.0,25.0,29.96,South,184,4.0,7.0,74,0.00,,,0.00,,2013-02-26 00:42:00,
2013-02-25 19:51:00,33.0,26.0,29.96,South,183,4.0,8.0,74,0.00,,,0.00,,2013-02-26 00:51:00,
2013-02-25 20:02:00,33.0,26.0,29.96,South,177,4.0,6.0,74,0.00,,,0.00,,2013-02-26 01:02:00,
2013-02-25 20:11:00,33.0,26.0,29.96,South,177,4.0,6.0,74,0.00,,,0.00,,2013-02-26 01:11:00,
2013-02-25 20:21:00,33.0,25.0,29.96,South,181,5.0,8.0,73,0.00,,,0.00,,2013-02-26 01:21:00,
2013-02-25 20:32:00,33.0,26.0,29.96,South,184,5.0,8.0,74,0.00,,,0.00,,2013-02-26 01:32:00,
2013-02-25 20:42:00,33.0,26.0,29.96,South,184,5.0,8.0,74,0.00,,,0.00,,2013-02-26 01:42:00,
2013-02-25 20:52:00,32.0,25.0,29.96,South,183,5.0,12.0,74,0.00,,,0.00,,2013-02-26 01:52:00,
2013-02-25 21:01:00,32.0,25.0,29.96,South,181,5.0,10.0,75,0.00,,,0.00,,2013-02-26 02:01:00,
2013-02-25 21:11:00,32.0,25.0,29.96,South,181,5.0,10.0,75,0.00,,,0.00,,2013-02-26 02:11:00,
2013-02-25 21:21:00,32.0,25.0,29.97,South,179,5.0,10.0,76,0.00,,,0.00,,2013-02-26 02:21:00,
2013-02-25 21:32:00,31.0,25.0,29.96,South,179,6.0,13.0,77,0.00,,,0.00,,2013-02-26 02:32:00,
2013-02-25 21:42:00,31.0,25.0,29.96,South,179,6.0,13.0,77,0.00,,,0.00,,2013-02-26 02:42:00,
2013-02-25 21:52:00,31.0,25.0,29.96,South,181,6.0,13.0,78,0.00,,,0.00,,2013-02-26 02:52:00,
2013-02-25 22:02:00,31.0,25.0,29.98,South,184,5.0,14.0,79,0.00,,,0.00,,2013-02-26 03:02:00,
2013-02-25 22:11:00,31.0,25.0,29.98,South,184,5.0,14.0,79,0.00,,,0.00,,2013-02-26 03:11:00,
2013-02-25 22:22:00,30.0,25.0,29.97,South,181,6.0,13.0,80,0.00,,,0.00,,2013-02-26 03:22:00,
2013-02-25 22:32:00,30.0,25.0,29.96,South,181,5.0,12.0,82,0.00,,,0.00,,2013-02-26 03:32:00,
2013-02-25 22:42:00,30.0,25.0,29.96,South,181,5.0,12.0,82,0.00,,,0.00,,2013-02-26 03:42:00,
2013-02-25 22:52:00,29.0,25.0,29.96,South,181,7.0,13.0,83,0.00,,,0.00,,2013-02-26 03:52:00,
2013-02-25 23:02:00,29.0,25.0,29.95,South,181,7.0,13.0,83,0.00,,,0.00,,2013-02-26 04:02:00,
2013-02-25 23:11:00,29.0,25.0,29.95,South,181,7.0,13.0,83,0.00,,,0.00,,2013-02-26 04:11:00,
2013-02-25 23:22:00,29.0,25.0,29.95,South,181,7.0,15.0,85,0.00,,,0.00,,2013-02-26 04:22:00,
2013-02-25 23:32:00,29.0,25.0,29.95,South,181,7.0,15.0,85,0.00,,,0.00,,2013-02-26 04:32:00,
2013-02-25 23:42:00,29.0,25.0,29.95,South,181,7.0,15.0,85,0.00,,,0.00,,2013-02-26 04:42:00,
2013-02-25 23:52:00,28.0,25.0,29.94,South,184,7.0,14.0,89,0.00,,,0.00,,2013-02-26 04:52:00,